Wetbulb
46.40 43.39 40.38 43.74 44.59 44.65 42.27 40.92 39.50 38.37 40.89 40.68 38.10 38.55 41.69 40.66 43.42 46.48 48.18 50.54 52.60 54.61 57.48 57.27 58.15 60.06 61.03 61.47 61.34 61.10 60.45 60.97 61.29 60.83 60.56 61.02 61.43 62.57 62.92 62.64 62.69 62.17 61.64 61.03
42.38 40.12 44.98 45.65 46.16 43.94 42.16 41.34 40.90 41.00 39.81 39.52 40.92 41.54 41.56 38.55 39.16 42.84 47.30 48.82 50.96 52.29 53.51 55.58 56.53 57.80 59.65 60.97 61.37 61.37 61.24 61.29 61.34 61.90 62.06 62.68 62.93 63.42 63.30 63.18 62.47 62.42 61.97 61.65
40.95 42.74 46.11 44.94 43.80 42.88 40.62 40.66 40.15 39.25 37.62 37.91 35.42 35.88 39.61 38.63 37.90 38.65 42.12 47.23 49.51 51.53 52.61 53.65 54.69 55.98 57.84 59.59 60.77 61.28 61.70 61.73 61.93 62.18 61.41 61.53 62.51 62.09 61.89 62.14 62.28 62.39 62.48 62.42
42.05 44.97 43.57 43.17 42.05 43.67 37.03 40.84 38.77 37.13 36.16 33.92 36.78 27.51 38.64 39.58 38.13 36.73 40.03 39.40 44.52 48.03 49.55 51.71 52.06 53.87 56.09 57.85 59.82 61.30 61.83 62.03 62.24 62.54 61.63 61.45 61.25 60.19 61.11 61.67 62.77 63.15 62.87 62.60
38.78 41.48 41.57 40.66 42.27 43.90 39.96 41.20 38.00 37.02 34.56 34.20 32.89 30.89 35.64 36.93 35.85 37.75 38.88 39.42 41.74 43.70 46.17 48.04 49.59 52.20 54.02 56.40 57.25 59.53 60.93 61.86 62.30 62.41 62.56 61.73 61.61 61.74 61.19 61.23 61.10 61.45 61.35 61.94
38.81 42.30 43.74 42.22 42.34 44.15 41.53 38.80 37.59 36.58 35.45 28.52 33.48 32.48 32.33 36.24 37.44 38.59 40.60 41.73 42.10 42.21 41.31 43.58 43.89 45.51 48.73 52.22 55.38 57.61 59.35 60.58 61.85 62.05 62.34 61.82 61.74 60.26 60.09 59.68 59.32 58.76 57.13 56.20
38.01 39.28 40.32 43.41 38.24 40.21 39.81 37.38 29.16 26.96 26.59 26.89 29.14 29.49 36.96 39.61 37.02 39.54 41.67 41.32 42.74 42.73 41.12 40.40 39.73 40.78 43.50 47.14 52.00 55.13 57.76 58.88 60.79 61.26 61.59 61.78 61.82 61.08 60.87 60.28 59.02 56.28 53.83 52.41
33.15 31.31 37.59 41.44 38.51 36.10 37.28 37.11 30.29 24.78 23.01 24.90 26.50 28.11 33.33 39.92 45.92 45.08 39.45 39.44 39.53 39.92 39.71 40.37 41.37 41.92 42.42 44.63 47.63 51.38 55.29 57.66 59.89 60.81 61.11 61.59 61.69 61.12 61.08 60.18 58.18 56.78 55.21 52.05
33.43 31.38 38.66 40.68 40.82 39.78 35.32 34.16 35.47 28.33 18.32 21.35 25.30 29.56 34.96 34.92 35.41 35.47 35.77 37.29 38.97 39.14 39.41 40.99 41.72 41.63 42.85 44.31 46.01 47.39 50.38 56.51 59.11 60.22 60.76 60.78 60.99 61.03 59.40 58.89 57.25 53.69 49.50 46.38
34.34 29.60 36.09 38.09 40.79 39.76 37.88 38.56 31.40 30.91 24.82 19.66 24.15 24.63 32.07 32.36 34.90 36.15 35.92 37.53 39.47 39.25 38.63 39.43 40.64 41.68 43.55 44.81 44.79 44.70 44.92 48.55 54.83 59.12 59.83 59.81 60.06 58.87 57.10 54.40 51.10 48.70 44.79 42.85
33.10 31.70 31.15 36.59 35.73 35.14 35.65 34.78 34.65 33.04 27.51 23.18 18.86 26.48 31.81 37.56 38.61 37.11 38.84 38.51 39.75 40.05 38.62 39.16 41.22 43.33 44.49 45.01 45.01 45.22 45.02 45.44 47.20 53.36 57.54 55.81 54.14 53.75 52.16 50.98 48.05 45.38 42.53 40.39
34.28 30.92 28.84 29.88 33.58 39.75 36.86 35.78 34.23 28.94 25.56 24.80 24.25 25.19 33.53 32.79 34.87 35.38 36.80 37.20 38.60 39.14 38.94 39.46 41.30 42.56 43.15 43.83 44.08 44.61 45.04 46.41 47.47 50.86 51.78 50.76 50.24 48.77 47.78 45.76 44.05 42.25 40.04 38.31
34.70 28.60 22.02 27.71 32.10 31.79 34.26 35.06 36.42 32.94 30.50 27.50 23.49 31.78 32.92 32.52 34.59 35.56 36.33 37.12 38.40 38.85 39.38 40.18 40.47 41.39 42.03 42.93 43.48 43.88 43.79 46.55 45.64 46.21 47.25 46.55 46.01 46.06 44.36 41.90 40.09 39.37 37.23 35.85
38.06 30.03 26.54 25.46 26.97 31.25 28.83 33.58 35.53 35.79 30.35 29.76 29.85 34.23 36.99 36.09 35.31 35.52 36.27 36.84 38.07 38.73 39.18 39.46 39.42 41.31 41.92 42.05 41.70 43.26 42.66 43.83 43.65 44.15 43.84 43.50 43.28 42.89 41.14 39.10 37.42 36.25 35.91 33.93
34.73 26.06 28.43 29.75 30.62 30.74 30.58 31.68 33.17 33.21 34.98 31.35 34.85 33.74 36.28 38.23 38.26 35.94 36.09 36.40 37.61 38.17 38.65 39.29 39.45 39.80 39.25 39.53 39.44 40.28 41.27 41.25 42.03 42.10 42.06 40.71 38.94 37.80 37.00 35.53 35.20 33.42 33.35 32.05
32.94 24.96 29.42 26.79 29.94 31.23 28.90 31.76 33.73 33.33 34.93 35.05 34.78 32.47 35.34 34.79 35.67 36.23 37.91 37.60 37.77 38.16 39.17 39.66 39.83 39.09 38.54 39.33 39.59 39.03 39.50 39.28 40.72 40.39 39.40 36.88 35.89 34.58 34.15 32.84 31.96 31.42 30.39 29.88
31.24 28.30 22.65 16.75 28.10 30.22 23.72 29.28 31.70 34.05 35.00 34.59 29.72 36.22 34.83 33.95 36.60 36.52 37.77 38.27 39.03 39.50 39.24 39.69 40.30 39.86 40.09 39.86 39.54 37.99 37.09 37.16 37.74 36.84 34.33 34.41 33.92 33.06 32.22 31.24 30.14 29.08 28.71 28.68
33.47 28.64 24.98 17.36 24.13 21.21 29.70 32.06 35.91 33.96 35.52 37.17 37.03 38.15 36.42 38.79 40.62 37.80 38.34 38.46 38.81 39.89 40.17 39.89 40.60 40.74 40.62 39.16 37.68 36.46 35.38 34.74 35.55 35.07 33.82 32.77 32.89 31.66 29.82 29.30 28.77 27.39 27.79 27.53
33.90 31.84 21.02 24.22 17.62 26.06 31.63 30.66 30.18 30.22 32.37 37.13 35.68 38.10 37.44 36.88 33.74 38.76 39.17 39.99 41.44 40.34 41.49 41.87 41.77 41.41 40.01 38.36 37.81 35.94 33.87 33.61 33.28 33.56 33.09 32.13 31.76 30.47 28.96 28.25 26.99 26.80 26.90 26.08
32.92 33.92 29.13 12.97 17.50 16.14 25.94 31.22 33.09 34.35 28.15 36.29 37.58 38.02 36.39 34.04 31.49 38.02 41.33 39.12 39.77 40.40 40.64 40.13 40.05 39.64 38.36 38.19 36.62 34.84 33.73 32.75 32.63 31.80 31.49 31.30 31.24 31.03 28.96 27.66 26.65 26.06 26.80 25.78
26.10 25.02 26.63 23.19 16.16 21.71 29.38 30.08 33.03 23.73 28.33 29.16 33.31 36.98 34.12 34.45 39.14 36.72 36.59 37.47 39.44 38.81 38.82 39.28 39.43 39.00 38.44 37.15 35.13 34.57 33.64 32.96 33.87 31.28 29.62 28.69 28.92 28.88 28.14 26.82 25.27 25.58 25.03 24.01
25.65 24.29 25.52 23.96 20.81 23.36 31.09 30.40 31.03 33.87 32.20 31.84 32.98 32.60 33.85 34.34 33.17 34.10 35.66 35.39 35.55 36.91 38.28 38.21 38.67 38.15 37.10 35.11 34.85 34.53 33.16 33.12 30.15 29.42 28.58 27.82 27.75 27.30 26.76 25.63 24.49 23.75 22.85 21.64
24.51 28.47 25.19 30.75 28.83 33.15 31.35 31.76 32.55 33.41 33.04 31.84 32.10 32.72 33.52 32.93 32.26 33.10 33.77 34.04 34.35 33.07 34.30 34.68 35.55 33.88 33.89 32.52 34.45 33.37 32.18 29.84 29.26 29.14 28.13 27.13 26.25 25.91 25.38 24.19 22.61 21.85 22.31 21.84
26.31 25.74 26.88 28.46 27.19 31.02 31.28 30.94 31.60 33.06 32.74 32.33 32.18 31.34 33.02 33.25 33.00 32.80 32.81 32.23 32.32 30.85 29.95 28.50 29.36 28.95 28.28 28.73 30.12 30.91 29.30 29.36 29.68 28.60 26.47 24.89 24.44 23.04 23.05 23.33 22.96 22.25 21.98 21.69
27.97 29.06 23.74 23.20 26.46 27.82 28.67 30.09 32.17 32.45 32.07 32.37 32.14 31.63 32.04 33.00 32.54 32.10 31.17 29.27 29.82 28.38 27.68 27.91 28.01 27.47 27.53 26.93 27.44 27.68 28.43 29.50 29.13 26.63 24.65 24.56 23.37 23.11 21.60 21.84 22.18 22.26 22.41 24.66
28.73 28.16 28.89 28.41 31.65 31.89 30.54 31.07 32.04 31.63 31.25 30.80 32.10 31.58 31.03 30.95 31.66 31.18 29.54 28.27 27.46 27.11 26.50 27.11 25.33 24.76 23.95 24.96 24.86 26.09 28.38 29.85 26.93 24.53 23.77 23.26 22.38 21.60 21.02 20.68 20.59 24.42 24.32 25.87
MSLP
1017.46 1017.72 1017.14 1017.48 1017.56 1018.02 1018.83 1019.12 1019.45 1019.82 1020.29 1020.59 1020.03 1019.68 1019.06 1018.98 1019.72 1019.70 1019.68 1019.88 1019.62 1019.52 1019.46 1020.07 1020.47 1021.02 1021.42 1021.99 1022.47 1022.79 1023.16 1023.48 1023.88 1024.41 1024.84 1025.22 1025.43 1025.66 1025.84 1025.95 1026.15 1026.44 1026.81 1027.12
1017.95 1017.17 1017.23 1017.59 1017.85 1018.09 1018.81 1019.56 1020.23 1020.69 1020.61 1020.98 1020.26 1019.15 1018.84 1018.81 1018.68 1018.78 1018.79 1019.31 1019.27 1019.66 1019.62 1019.71 1020.00 1020.36 1020.81 1021.09 1021.72 1022.18 1022.51 1022.96 1023.29 1023.61 1023.86 1024.14 1024.50 1024.87 1024.93 1025.36 1025.85 1026.07 1026.41 1026.74
1016.85 1016.89 1017.17 1017.55 1017.91 1018.48 1019.44 1019.59 1020.27 1021.05 1021.36 1021.20 1020.66 1019.14 1018.29 1017.95 1017.90 1018.09 1018.21 1018.23 1018.73 1018.89 1018.84 1019.21 1019.58 1019.83 1020.02 1020.24 1020.80 1021.43 1021.64 1022.07 1022.50 1022.86 1023.44 1023.97 1024.26 1024.66 1024.88 1025.20 1025.51 1025.73 1025.99 1026.27
1017.04 1016.83 1016.91 1017.42 1017.78 1018.53 1019.33 1020.00 1020.78 1021.56 1022.16 1022.16 1021.21 1019.08 1016.81 1017.08 1017.27 1017.24 1017.14 1017.55 1017.50 1017.79 1018.24 1018.44 1018.87 1019.36 1019.41 1019.43 1019.77 1020.52 1020.97 1021.37 1021.72 1022.07 1022.87 1023.17 1023.40 1023.83 1024.04 1024.28 1024.58 1025.00 1025.31 1025.69
1017.13 1016.85 1017.08 1017.60 1017.71 1018.72 1019.53 1020.35 1021.71 1022.41 1023.10 1022.96 1021.53 1020.68 1016.34 1016.61 1016.43 1016.06 1015.93 1016.25 1016.12 1016.21 1017.02 1017.42 1017.83 1018.11 1018.53 1018.90 1019.01 1019.62 1020.29 1020.69 1021.02 1021.47 1022.03 1022.54 1022.80 1023.08 1023.39 1023.77 1024.03 1024.54 1025.14 1025.55
1017.63 1017.54 1017.52 1017.75 1018.38 1018.87 1020.13 1021.30 1022.71 1023.55 1023.87 1023.03 1021.38 1020.62 1016.28 1015.61 1014.88 1014.84 1014.80 1014.57 1014.66 1015.11 1015.65 1016.18 1016.82 1017.80 1017.99 1018.32 1018.62 1019.03 1019.51 1019.77 1020.26 1020.65 1021.18 1021.67 1022.01 1022.51 1022.99 1023.54 1024.07 1024.78 1025.21 1025.80
1017.85 1017.90 1018.01 1017.71 1018.98 1020.10 1020.12 1020.83 1022.92 1024.21 1024.12 1022.12 1021.01 1020.62 1015.74 1014.26 1013.83 1013.61 1013.59 1013.52 1013.53 1013.64 1014.54 1015.36 1016.26 1016.75 1017.17 1017.41 1017.83 1018.40 1018.68 1018.98 1019.46 1019.81 1020.32 1020.80 1021.23 1021.71 1022.13 1022.49 1023.32 1024.33 1025.06 1025.74
1016.83 1018.38 1017.75 1017.77 1018.40 1019.54 1020.54 1020.85 1021.63 1022.54 1023.08 1022.29 1021.67 1018.91 1014.62 1013.12 1012.52 1012.52 1012.70 1012.93 1013.02 1013.26 1013.75 1014.26 1014.70 1015.17 1015.74 1016.39 1016.83 1017.30 1017.99 1018.30 1018.64 1019.06 1019.47 1019.90 1020.43 1020.90 1021.41 1021.95 1022.67 1023.63 1024.25 1024.95
1016.27 1017.76 1017.94 1017.85 1018.53 1019.05 1020.83 1020.99 1021.26 1022.05 1022.67 1022.14 1019.93 1017.08 1014.35 1013.04 1012.51 1012.48 1012.51 1012.82 1012.54 1012.58 1013.02 1013.36 1013.66 1013.98 1014.65 1015.61 1015.92 1016.38 1017.05 1017.60 1017.78 1018.13 1018.80 1019.30 1019.82 1020.31 1020.80 1021.54 1022.30 1023.16 1024.03 1024.98
1014.96 1017.48 1018.35 1018.55 1018.73 1019.47 1019.50 1020.13 1021.50 1021.94 1022.06 1021.25 1018.58 1017.15 1014.09 1013.07 1012.37 1011.96 1012.29 1012.06 1011.80 1012.24 1012.89 1012.95 1013.43 1013.93 1014.63 1015.28 1015.70 1016.35 1016.64 1016.94 1017.42 1017.68 1018.22 1018.80 1019.37 1019.97 1020.60 1021.26 1022.20 1022.99 1024.00 1024.72
1014.44 1015.68 1018.72 1018.59 1018.16 1018.33 1019.71 1020.11 1020.90 1021.09 1021.08 1020.07 1018.46 1015.50 1012.95 1011.61 1010.93 1011.07 1011.44 1011.60 1011.70 1012.32 1013.00 1013.63 1013.77 1014.15 1014.69 1015.50 1015.91 1016.22 1016.60 1016.82 1017.20 1017.53 1017.92 1018.50 1019.17 1019.77 1020.53 1021.30 1022.05 1022.77 1023.93 1024.89
1013.95 1015.56 1017.87 1018.20 1018.04 1018.20 1018.65 1018.99 1019.33 1019.48 1019.68 1019.26 1018.33 1014.54 1012.25 1011.75 1011.56 1011.51 1011.85 1011.89 1011.78 1012.33 1012.85 1013.44 1014.02 1014.45 1014.99 1015.31 1015.95 1016.31 1016.68 1017.05 1017.38 1017.54 1017.93 1018.42 1018.96 1019.67 1020.45 1021.12 1022.03 1022.84 1023.56 1024.89
1013.24 1014.96 1017.45 1018.71 1018.61 1018.74 1018.28 1018.32 1018.60 1018.71 1018.47 1018.03 1017.84 1012.84 1011.84 1011.83 1011.68 1011.63 1011.80 1011.91 1011.82 1012.45 1013.04 1013.52 1013.71 1014.38 1015.03 1015.60 1015.86 1016.31 1016.68 1017.01 1017.51 1017.99 1018.25 1018.68 1019.19 1019.71 1020.37 1021.06 1021.93 1022.82 1023.64 1024.84
1012.30 1013.85 1014.77 1015.49 1015.69 1016.30 1017.69 1017.33 1017.86 1018.35 1018.23 1016.39 1015.43 1012.44 1011.73 1011.36 1011.71 1011.61 1011.91 1011.96 1012.08 1012.32 1012.90 1013.41 1013.93 1013.83 1014.14 1015.00 1015.82 1016.36 1016.54 1016.78 1017.50 1018.06 1018.40 1018.70 1019.23 1019.73 1020.33 1021.11 1021.81 1022.75 1023.39 1024.84
1012.47 1013.81 1014.95 1015.30 1015.36 1015.63 1015.74 1016.30 1017.07 1017.39 1015.42 1015.76 1012.10 1012.99 1011.46 1011.11 1010.95 1011.23 1011.48 1011.80 1012.27 1012.55 1013.03 1013.55 1014.00 1014.41 1014.88 1014.97 1015.55 1016.16 1016.59 1016.71 1017.19 1017.88 1018.46 1018.74 1019.29 1019.86 1020.57 1021.33 1022.24 1022.54 1024.12 1024.93
1012.99 1014.14 1015.05 1016.15 1016.27 1015.75 1015.68 1015.92 1015.90 1015.27 1014.90 1014.46 1012.91 1011.89 1011.37 1011.45 1011.08 1010.55 1011.27 1011.60 1011.97 1011.80 1011.96 1012.57 1013.26 1013.52 1014.17 1014.67 1015.22 1015.98 1016.50 1016.82 1017.02 1017.72 1018.49 1019.04 1019.47 1019.98 1020.86 1021.68 1022.65 1023.05 1024.35 1025.22
1012.83 1014.06 1015.37 1017.05 1016.44 1015.97 1015.89 1013.74 1014.15 1013.49 1013.43 1012.63 1013.25 1008.66 1010.18 1010.67 1010.64 1010.48 1010.72 1011.30 1011.23 1010.91 1011.11 1011.71 1012.16 1013.04 1013.11 1013.71 1014.41 1015.39 1016.31 1016.76 1017.09 1017.60 1018.36 1019.10 1019.69 1020.52 1021.18 1021.88 1022.56 1023.47 1024.23 1025.19
1012.02 1014.19 1015.33 1017.21 1017.00 1016.26 1012.71 1011.74 1011.76 1011.89 1011.36 1012.12 1011.41 1009.97 1010.24 1010.14 1010.24 1010.22 1009.98 1010.00 1010.01 1010.23 1010.14 1010.32 1011.09 1011.87 1012.77 1013.51 1014.35 1015.06 1015.71 1016.51 1017.20 1017.75 1018.11 1018.77 1019.55 1020.58 1021.32 1021.92 1022.55 1023.47 1024.14 1024.79
1011.78 1013.74 1015.93 1016.81 1017.10 1014.42 1011.61 1012.06 1012.23 1012.12 1010.22 1010.79 1010.41 1010.20 1010.28 1009.99 1010.26 1009.64 1009.37 1008.98 1008.67 1008.80 1009.18 1009.03 1010.00 1011.09 1012.19 1012.94 1013.74 1014.63 1015.57 1016.18 1016.82 1017.40 1017.93 1018.63 1019.36 1020.31 1021.15 1021.87 1022.58 1023.58 1024.38 1025.19
1012.62 1013.12 1014.73 1016.51 1016.94 1015.28 1012.80 1011.14 1010.61 1011.21 1009.51 1009.54 1009.44 1009.34 1009.69 1010.00 1010.35 1009.08 1008.42 1008.59 1008.08 1008.19 1008.35 1009.09 1009.96 1011.06 1012.00 1012.67 1013.39 1014.27 1015.05 1015.76 1016.22 1016.78 1017.37 1018.35 1019.31 1020.03 1020.93 1021.76 1022.63 1023.46 1024.41 1025.06
1013.55 1014.28 1014.97 1016.10 1015.95 1013.94 1012.04 1011.17 1010.74 1011.21 1010.35 1009.25 1009.43 1009.12 1009.48 1009.80 1008.69 1009.06 1009.29 1009.31 1009.29 1008.76 1008.76 1009.19 1009.74 1010.32 1011.19 1012.17 1013.11 1013.89 1014.69 1015.06 1015.73 1016.62 1017.49 1018.38 1019.18 1019.93 1020.91 1021.90 1022.68 1023.51 1024.54 1025.39
1012.59 1013.83 1014.51 1015.25 1014.91 1012.95 1010.87 1011.03 1010.34 1009.96 1009.97 1010.30 1010.23 1009.93 1009.73 1009.33 1009.25 1009.76 1009.84 1009.84 1009.95 1009.99 1009.77 1010.17 1010.59 1010.80 1011.39 1012.21 1013.06 1013.87 1014.36 1015.15 1015.86 1016.75 1017.71 1018.65 1019.43 1020.14 1021.01 1021.86 1022.83 1023.82 1024.69 1025.59
1012.15 1011.48 1012.13 1012.39 1011.70 1010.80 1010.34 1010.02 1009.93 1010.37 1010.81 1010.97 1011.17 1010.99 1010.34 1010.11 1010.37 1010.70 1010.78 1010.85 1010.85 1011.34 1011.13 1011.48 1011.73 1011.94 1012.15 1012.67 1013.17 1013.85 1014.37 1015.18 1016.03 1016.96 1017.82 1018.55 1019.44 1020.24 1021.00 1021.70 1022.77 1023.90 1024.60 1025.13
1011.59 1011.29 1011.56 1011.97 1011.30 1011.10 1010.85 1010.87 1011.02 1011.11 1011.49 1011.68 1011.56 1011.51 1011.28 1011.28 1011.50 1011.36 1011.58 1011.91 1011.96 1012.07 1012.33 1012.32 1012.39 1012.53 1012.96 1013.22 1013.50 1013.85 1014.44 1015.12 1015.91 1016.87 1017.86 1018.82 1019.68 1020.58 1021.30 1021.94 1022.63 1023.33 1024.00 1024.62
1011.06 1011.12 1011.77 1012.07 1011.60 1011.84 1011.75 1011.74 1011.78 1011.83 1011.90 1011.86 1011.95 1011.99 1012.11 1012.15 1012.37 1012.50 1012.86 1013.16 1013.24 1013.24 1013.30 1013.30 1013.41 1013.49 1013.77 1013.82 1013.95 1014.25 1014.60 1015.07 1015.83 1016.66 1017.59 1018.54 1019.37 1020.14 1021.13 1021.89 1022.43 1023.00 1023.54 1023.61
1011.39 1011.16 1011.45 1011.46 1011.07 1011.41 1011.89 1012.02 1012.36 1012.66 1012.81 1012.87 1012.74 1012.84 1012.93 1013.25 1013.48 1013.45 1013.72 1013.87 1013.93 1014.19 1014.32 1014.40 1014.47 1014.64 1014.75 1014.66 1014.75 1014.87 1014.93 1015.04 1015.71 1016.69 1017.52 1018.29 1019.17 1020.14 1021.01 1021.91 1022.94 1023.38 1023.81 1024.02
Wind_Speed
2 5 11 16 11 2 10 3 9 4 4 2 6 11 13 5 5 7 8 10 11 14 11 8 11 10 9 9 10 11 11 10 8 5 5 4 5 6 5 4 5 6 5 6
4 10 6 10 9 6 11 8 4 3 3 4 12 22 14 6 7 9 11 9 12 6 7 10 11 13 13 14 14 12 12 12 11 8 6 3 6 4 3 5 5 6 6 6
9 3 11 12 12 12 5 12 8 3 3 3 3 15 18 7 6 5 7 7 7 14 14 11 12 13 14 15 14 14 15 14 13 12 6 3 3 2 3 3 3 6 8 8
2 8 17 14 14 15 7 4 6 7 5 5 4 8 12 9 13 8 13 10 13 14 8 10 12 12 15 16 14 14 14 14 13 14 11 13 9 7 4 6 5 7 9 7
6 10 15 14 13 15 4 12 6 5 6 2 5 5 7 7 11 11 14 14 15 16 15 15 15 16 14 14 14 14 14 14 14 14 14 12 11 8 5 5 8 5 4 3
3 1 8 7 6 13 15 14 12 6 3 7 8 11 8 10 14 8 9 16 17 16 15 14 9 8 9 7 11 13 15 15 14 15 16 16 15 11 7 5 5 5 4 3
4 4 1 5 11 9 4 13 4 2 4 6 3 8 19 9 7 9 12 14 17 16 13 13 13 12 12 14 15 13 15 15 14 15 15 16 16 14 14 11 9 10 6 3
8 8 9 4 6 8 9 1 6 8 6 2 1 14 8 16 22 15 11 8 5 9 10 14 17 16 14 14 14 15 15 14 15 15 16 15 15 10 10 10 9 7 7 7
11 4 1 2 6 12 4 4 1 4 2 2 7 9 10 11 10 7 11 7 12 10 11 16 15 15 14 13 16 17 15 14 14 15 13 13 13 12 10 10 10 8 8 7
8 7 3 6 7 4 4 6 3 2 5 5 5 6 12 3 8 10 10 14 12 8 8 9 7 7 5 6 7 8 10 13 10 14 12 10 11 10 9 10 10 11 10 10
6 6 2 7 8 11 6 5 2 2 4 4 2 8 8 13 14 9 13 9 8 7 7 5 4 5 8 6 6 7 7 9 9 9 8 8 8 9 9 9 10 12 11 11
6 7 5 3 4 8 5 9 9 5 6 2 3 12 3 7 6 3 8 8 5 5 7 7 6 7 6 7 6 6 6 6 6 7 7 8 10 9 10 11 11 12 13 10
9 3 6 2 4 2 8 7 10 1 2 7 4 13 2 3 5 6 7 8 7 5 5 5 8 8 6 6 6 6 5 6 5 6 8 8 9 10 11 12 11 11 13 11
7 5 7 11 6 10 9 15 15 15 4 8 14 23 13 10 6 6 6 8 8 5 6 5 5 8 11 8 7 6 7 7 7 7 8 9 10 10 11 12 13 12 13 12
4 5 4 3 6 5 6 11 19 20 27 11 29 21 18 17 12 4 3 3 5 6 5 6 6 5 5 5 5 5 6 8 8 8 8 9 9 9 10 10 10 13 10 10
1 2 5 2 4 6 4 13 20 25 22 23 20 27 3 4 9 8 5 5 8 8 9 9 10 10 10 9 9 8 8 8 9 9 8 8 9 11 11 10 10 11 11 10
9 7 4 5 2 6 7 17 21 20 21 24 17 35 6 5 11 9 6 8 10 11 8 10 12 11 12 12 11 11 9 6 8 8 8 9 10 10 11 11 12 11 12 11
13 7 4 3 2 4 6 3 18 24 16 24 26 24 7 13 14 9 8 8 12 12 10 9 9 10 9 7 8 8 10 9 9 9 10 10 11 12 11 12 12 10 10 11
4 8 3 6 3 10 15 5 7 11 22 20 21 20 12 9 0 16 12 13 17 9 15 9 8 8 9 12 11 11 10 11 10 10 11 11 12 13 13 12 12 9 10 8
6 7 8 3 7 12 3 4 5 9 18 9 18 21 17 8 5 13 10 7 12 9 3 7 8 7 10 10 12 12 12 12 12 11 12 12 12 13 13 12 11 5 8 8
7 2 12 5 5 9 10 1 5 7 6 3 4 13 5 10 12 1 4 5 5 4 5 5 7 10 9 9 10 11 11 14 10 9 10 10 10 12 11 11 5 8 9 9
8 9 6 3 2 13 8 4 13 6 2 2 3 3 4 5 1 4 5 5 7 8 6 0 4 5 6 9 10 10 12 7 9 10 11 10 10 8 9 12 8 9 10 9
3 9 9 13 9 2 7 3 2 2 2 1 1 2 1 3 4 4 4 7 7 7 5 3 2 4 4 5 8 9 6 9 10 11 11 11 10 9 10 11 11 8 8 8
3 1 4 5 5 5 4 1 2 2 3 1 1 2 3 4 5 5 6 6 6 5 6 4 3 3 3 3 3 4 9 10 12 11 10 10 11 9 8 6 7 8 8 7
4 7 6 3 5 3 4 4 4 3 2 3 4 4 5 4 4 4 4 4 5 5 5 5 4 2 1 2 4 5 8 11 11 10 10 10 9 11 9 6 6 6 2 6
3 6 6 6 2 4 1 3 2 4 4 4 5 5 5 5 5 3 5 4 4 5 4 4 4 3 2 1 2 3 6 9 10 10 9 9 9 8 8 8 7 8 8 8
Wind_Direction
136 171 196 203 191 186 161 168 192 163 139 114 263 269 269 237 235 238 219 219 215 208 204 186 188 188 183 185 190 193 184 194 176 174 182 187 198 204 208 190 183 179 183 189
123 219 168 161 177 138 160 177 193 353 78 194 257 264 270 222 225 215 216 215 222 202 206 196 194 190 194 193 201 195 196 190 192 192 192 175 178 189 180 183 177 181 179 185
184 154 148 160 178 183 172 192 177 176 100 243 322 269 256 239 240 217 218 211 197 216 212 208 200 201 200 200 195 202 198 192 192 192 167 128 114 85 129 166 172 187 187 188
143 150 158 171 183 187 186 102 106 107 105 221 179 283 234 228 240 210 222 202 217 215 219 201 205 210 207 207 197 202 201 197 195 188 187 197 198 188 184 174 185 194 190 194
171 162 155 176 185 175 158 126 96 100 120 339 207 249 271 168 245 236 223 215 219 214 212 211 207 208 210 203 196 197 200 201 197 191 196 200 204 206 185 185 169 152 122 172
108 288 161 165 151 168 129 95 75 68 115 246 192 219 229 214 223 245 242 219 216 214 206 212 202 196 212 197 198 197 198 202 195 191 197 201 204 198 182 169 142 144 131 126
141 156 295 152 97 128 149 148 114 161 185 252 259 198 244 250 209 220 227 222 222 211 201 203 199 202 207 195 196 199 198 202 194 194 197 200 203 198 201 182 164 159 153 155
153 187 173 173 143 152 147 212 151 185 194 209 70 233 252 228 232 230 232 243 239 203 206 205 211 208 208 207 194 188 195 198 193 198 201 201 201 199 200 183 162 168 165 150
167 163 283 76 137 145 166 171 91 86 65 94 206 283 277 234 248 237 241 228 231 219 206 213 215 203 201 196 195 188 186 198 197 200 202 201 197 197 183 169 160 148 133 128
193 116 231 164 97 37 142 153 116 177 191 245 265 265 247 335 262 239 239 233 239 240 233 220 209 199 190 184 163 165 178 189 192 202 201 199 195 178 162 149 149 144 135 135
145 107 114 139 204 164 140 164 104 98 200 204 287 260 225 210 212 219 232 241 248 254 249 244 200 173 164 161 169 177 185 183 186 190 189 161 159 154 151 152 147 146 136 141
203 112 137 200 182 159 138 177 177 169 198 228 166 261 276 259 267 270 274 287 273 257 220 199 194 179 177 167 166 174 174 181 185 182 164 155 151 146 147 147 147 144 139 141
178 147 95 40 332 128 203 180 202 177 69 205 159 263 135 281 301 282 265 263 258 255 248 214 172 175 180 180 177 178 167 164 153 156 156 153 151 153 152 145 140 142 136 139
116 142 152 187 179 140 189 194 195 206 184 210 223 252 281 294 272 291 280 277 284 243 219 214 225 200 179 175 174 171 166 161 158 161 158 156 158 157 152 149 143 141 139 147
111 133 120 100 132 121 154 173 189 202 223 197 243 247 240 253 276 247 268 278 279 270 244 232 214 204 206 180 159 166 160 157 160 160 163 156 146 135 129 135 149 131 141 139
148 123 117 81 147 151 169 205 198 211 225 240 253 278 266 274 297 295 216 257 275 255 223 209 213 196 194 192 186 175 175 165 159 159 158 148 140 135 141 134 140 129 132 130
148 140 103 207 130 93 311 203 204 213 218 218 223 243 149 249 254 259 260 221 244 255 237 220 211 209 199 192 174 180 172 154 157 151 147 150 145 144 144 140 139 138 140 139
174 108 73 164 86 214 242 213 204 208 218 223 245 252 219 237 256 273 277 218 232 232 239 223 207 207 200 164 163 152 158 165 166 165 158 154 154 152 147 147 145 141 148 148
128 148 94 148 184 305 284 195 157 178 242 225 236 250 235 232 93 274 262 249 256 216 210 219 196 193 175 174 172 162 164 167 172 174 168 163 160 156 156 153 150 144 143 136
108 155 152 93 167 211 270 198 168 112 273 204 222 243 232 140 213 259 279 243 255 252 200 165 164 164 171 177 164 166 174 174 186 178 170 164 163 161 159 152 152 129 140 134
151 103 195 152 223 277 240 127 123 128 260 279 221 240 196 193 222 296 342 9 328 267 220 164 164 172 177 158 160 179 177 197 185 156 151 153 157 154 151 140 128 137 133 128
148 161 177 116 209 259 176 47 165 193 341 255 312 314 222 258 238 329 345 24 14 3 9 250 175 170 150 157 169 183 196 168 142 146 150 153 149 144 144 140 129 131 135 136
167 179 177 188 203 232 201 159 122 115 229 265 275 301 272 67 36 31 10 15 21 8 8 2 190 162 153 160 178 182 175 143 146 152 158 153 143 142 146 143 142 141 147 149
283 174 160 90 269 209 204 107 205 189 183 176 89 358 14 72 13 39 28 10 12 10 2 347 109 149 178 150 142 151 147 149 153 155 150 147 145 136 133 134 150 153 161 156
199 124 147 297 288 358 255 219 187 173 93 104 79 72 40 55 60 54 42 35 24 360 352 359 2 356 247 145 130 139 150 154 156 149 150 154 151 154 146 139 154 157 130 166
194 162 155 212 178 150 98 96 173 144 114 61 106 74 71 46 36 51 41 15 31 19 354 13 25 39 348 46 103 136 159 161 150 151 158 162 154 149 144 136 116 112 131 130